Lid_Strength_Index
3 3 3 3 3 3 3 2 2 2 2 2 1 1 1 2 3 6 9 7 6 4 5 10 10 12 12 13 12 13 16 18 16 16 15 13 12 11 10 10 10 8 6 5 3
4 4 3 3 3 3 3 3 3 3 2 2 2 1 1 0 4 7 4 3 4 4 10 11 12 13 14 13 13 14 17 14 13 14 14 12 13 12 11 11 10 8 6 4 3
3 3 3 3 3 3 3 3 2 2 2 2 2 1 1 1 6 8 2 3 2 5 8 10 11 12 14 14 13 14 16 13 13 12 12 12 13 12 12 12 10 8 7 5 4
3 4 3 3 3 3 2 2 2 2 1 1 1 1 1 4 11 8 3 3 3 6 8 10 11 13 14 15 13 16 13 12 12 11 12 13 12 12 13 12 10 8 5 5 5
3 3 3 3 3 2 2 2 2 2 1 1 1 1 4 9 9 8 4 5 7 7 9 9 12 12 14 15 15 15 12 12 12 11 12 12 13 13 13 11 11 7 5 5 5
3 3 3 3 2 2 1 1 2 1 0 0 1 1 7 11 7 9 9 8 8 8 9 9 10 9 12 14 14 13 12 12 13 12 13 13 14 13 12 12 11 12 7 5 5
3 3 3 2 2 1 1 0 -0 -1 -1 0 1 3 8 9 8 8 8 9 9 9 9 8 8 10 12 13 12 13 14 13 13 13 13 13 15 15 10 11 12 12 11 9 5
3 3 2 2 1 1 1 1 -0 -1 -0 0 1 6 9 5 8 8 8 9 8 8 9 9 8 9 11 10 12 15 16 18 14 13 12 12 15 13 10 12 12 12 12 11 9
3 3 2 2 1 1 1 1 1 0 0 0 6 7 9 3 7 7 9 10 9 8 9 9 10 12 12 14 16 16 18 17 16 13 14 15 17 13 11 13 13 12 13 12 11
3 3 2 1 1 1 2 1 1 3 4 5 5 10 7 8 6 6 7 8 9 10 10 11 13 16 16 16 18 17 17 16 16 15 15 16 17 14 13 14 14 14 13 13 12
3 3 2 2 1 2 4 7 9 9 8 10 9 9 7 5 4 5 6 8 9 11 14 13 16 18 16 16 16 16 16 17 15 13 15 17 17 15 13 14 15 15 15 14 14
3 3 2 2 2 3 6 9 8 7 10 8 8 8 7 6 8 7 6 9 11 14 13 14 17 14 13 14 15 17 18 18 15 13 14 15 15 13 13 14 14 13 14 15 14
3 3 2 2 3 7 9 10 6 6 12 10 8 9 9 8 9 9 8 9 12 12 12 14 13 11 13 14 15 16 17 18 18 16 15 16 16 14 13 12 13 13 13 13 13
3 3 3 3 8 9 11 9 7 7 17 14 10 10 11 10 13 8 8 10 10 12 12 12 10 12 13 14 13 17 14 15 16 17 21 16 21 16 15 13 12 11 11 11 11
4 3 3 4 9 12 10 8 7 10 28 14 11 8 11 12 11 11 8 10 13 12 12 13 12 12 13 13 11 14 12 14 15 18 20 17 21 18 15 15 13 12 11 10 10
4 4 3 7 11 10 8 8 10 21 28 16 13 15 14 13 13 12 12 10 11 12 12 11 9 10 11 10 10 10 12 13 13 17 21 18 18 17 15 14 13 12 11 11 10
4 4 5 7 11 8 8 12 21 25 17 18 17 16 15 16 15 15 16 16 16 18 17 14 12 10 9 11 9 11 14 19 20 20 20 18 17 16 14 13 13 12 12 11 12
4 5 7 8 8 9 11 17 26 25 20 15 16 15 17 17 16 16 17 16 14 16 20 20 20 14 12 10 13 13 14 18 23 22 20 18 19 17 15 14 13 14 13 13 12
6 11 10 9 8 9 14 23 25 18 16 17 16 19 19 16 17 17 18 15 14 14 21 20 17 13 11 9 9 13 15 12 17 17 19 17 16 14 13 14 13 13 14 14 14
12 12 11 8 9 12 17 18 19 15 15 15 19 18 21 19 20 19 18 14 15 13 13 16 21 14 12 10 9 11 10 16 16 21 22 19 18 18 15 15 14 14 14 13 14
13 15 11 10 11 16 23 26 16 15 16 16 18 19 18 20 19 19 19 14 14 14 12 14 16 16 13 14 15 14 15 13 14 16 20 21 18 13 13 13 14 13 13 12 14
14 20 11 12 19 29 26 21 14 16 15 16 16 17 18 18 18 17 17 15 12 13 18 14 18 20 17 12 12 11 14 14 20 20 18 17 17 10 11 12 12 12 12 11 11
16 18 12 13 24 28 21 16 15 16 16 16 17 16 16 17 24 17 17 13 12 14 17 15 20 23 22 18 14 15 14 14 15 16 19 19 18 9 12 12 11 11 11 10 10
17 21 18 17 17 18 24 21 21 15 16 15 16 15 16 17 15 23 17 14 12 13 10 11 16 19 22 20 17 19 16 15 16 20 19 19 17 13 14 14 13 13 10 9 10
18 20 18 25 22 18 17 19 22 21 15 15 16 16 16 23 18 21 17 15 13 11 12 16 24 18 18 16 16 17 16 16 16 16 19 18 16 14 14 14 13 13 12 12 12
19 20 18 21 17 18 18 19 18 18 17 18 17 15 15 21 16 19 16 15 15 13 14 13 19 19 20 16 15 18 16 15 15 15 15 13 14 12 13 12 13 14 14 14 13
14 13 15 18 19 22 20 17 16 16 14 13 15 15 15 14 12 12 12 12 12 14 15 15 21 23 25 19 23 26 18 14 14 13 14 16 13 12 13 14 14 14 14 13 12